User: anonymous
Location: Columbia
(38.9520°N, 92.3340°W)
Time: 21:12:27
(UTC-05:00)
Language:

Iridium 22 - Orbit

View from above orbital plane
View from above orbital plane
View from above satellite
View from above satellite

Ground track
Ground track

The orbit data is extracted from the following two-line orbital elements,

1 24907U 97043E   14293.46113635  .00000210  00000-0  67912-4 0   200
2 24907 086.3933 301.7636 0002241 106.2460 041.1675 14.34216684898693
Epoch (UTC): 20 October 2014 11:04:02
Eccentricity: 0.0002241
inclination: 86.3933°
perigee height: 776 km
apogee height: 779 km
right ascension of ascending node: 301.7636°
argument of perigee: 106.2460°
revolutions per day: 14.34216684
mean anomaly at epoch: 41.1675°
orbit number at epoch: 89869

The dashed part of the orbit path shows where the satellite is in the earth's shadow,  

DLR